When you browse on this site, cookies collect data to enhance your experience and personalize the content and advertising you see.
Visit our Privacy Policy to learn more. By continuing to use the site, you agree to this use of cookies and data.
  • In Hungary
  • List of Countries
  • For 7 days
  • Water Temperature
  • Satellite Maps
  • Weather Map
  • News
  • Weather Widgets
  • user-avatar
    Login

    Hourly Weather Trujillo

    Today, 23 January, Wednesday

    Time Temperature Precipitation Wind Pressure Humidity
    00:00 +18°C° 0 mm 1 mps 648 mmHg 70%
    01:00 +16°C° 0 mm 1 mps 648 mmHg 65%
    02:00 +16°C° 0 mm 1 mps 648 mmHg 65%
    03:00 +16°C° 0 mm 1 mps 648 mmHg 65%
    04:00 +16°C° 0 mm 1 mps 648 mmHg 65%
    05:00 +16°C° 0 mm 1 mps 648 mmHg 66%
    06:00 +18°C° 0 mm 1 mps 649 mmHg 66%
    07:00 +18°C° 0 mm 1 mps 649 mmHg 67%
    08:00 +21°C° 0 mm 1 mps 650 mmHg 58%
    09:00 +24°C° 0 mm 1 mps 651 mmHg 50%
    10:00 +27°C° 0 mm 1 mps 652 mmHg 42%
    11:00 +28°C° 0 mm 1 mps 652 mmHg 39%
    12:00 +29°C° 0 mm 1 mps 651 mmHg 37%
    13:00 +30°C° 0 mm 2 mps 651 mmHg 34%
    14:00 +29°C° 0 mm 2 mps 650 mmHg 37%
    15:00 +28°C° 0 mm 2 mps 649 mmHg 41%
    16:00 +27°C° 0 mm 1 mps 648 mmHg 44%
    17:00 +24°C° 0 mm 1 mps 648 mmHg 54%
    18:00 +22°C° 0 mm 1 mps 647 mmHg 63%
    19:00 +19°C° 0 mm 1 mps 646 mmHg 73%
    20:00 +19°C° 0 mm 1 mps 647 mmHg 68%
    21:00 +19°C° 0 mm 1 mps 647 mmHg 63%
    22:00 +19°C° 0 mm 1 mps 648 mmHg 58%
    23:00 +18°C° 0 mm 1 mps 647 mmHg 60%

    Tomorrow, 24 January, Thursday

    Time Temperature Precipitation Wind Pressure Humidity
    00:00 +18°C° 0 mm 1 mps 647 mmHg 61%
    01:00 +18°C° 0 mm 1 mps 647 mmHg 63%
    02:00 +18°C° 0 mm 1 mps 647 mmHg 67%
    03:00 +18°C° 0 mm 1 mps 647 mmHg 71%
    04:00 +18°C° 0 mm 1 mps 646 mmHg 75%
    05:00 +18°C° 0 mm 1 mps 647 mmHg 74%
    06:00 +19°C° 0 mm 1 mps 648 mmHg 74%
    07:00 +19°C° 0 mm 1 mps 648 mmHg 74%
    08:00 +22°C° 0 mm 1 mps 649 mmHg 64%
    09:00 +25°C° 0 mm 1 mps 651 mmHg 54%
    10:00 +27°C° 0 mm 1 mps 652 mmHg 45%
    11:00 +28°C° 0 mm 1 mps 651 mmHg 42%
    12:00 +29°C° 0 mm 1 mps 651 mmHg 40%
    13:00 +30°C° 0 mm 1 mps 650 mmHg 38%
    14:00 +29°C° 0 mm 1 mps 649 mmHg 42%
    15:00 +28°C° 0 mm 1 mps 648 mmHg 45%
    16:00 +27°C° 0 mm 1 mps 647 mmHg 49%
    17:00 +25°C° 0 mm 1 mps 647 mmHg 58%
    18:00 +22°C° 0 mm 1 mps 647 mmHg 66%
    19:00 +20°C° 0 mm 1 mps 646 mmHg 75%
    20:00 +20°C° 0 mm 1 mps 647 mmHg 74%
    21:00 +20°C° 0 mm 1 mps 647 mmHg 73%
    22:00 +20°C° 0 mm 1 mps 648 mmHg 72%
    23:00 +19°C° 0 mm 1 mps 647 mmHg 72%

    Day after tomorrow, 25 January, Friday

    Time Temperature Precipitation Wind Pressure Humidity
    00:00 +19°C° 0 mm 1 mps 647 mmHg 72%
    01:00 +19°C° 0 mm 1 mps 647 mmHg 73%
    02:00 +19°C° 0 mm 1 mps 647 mmHg 74%
    03:00 +19°C° 0 mm 1 mps 647 mmHg 74%
    04:00 +19°C° 0 mm 1 mps 647 mmHg 75%
    05:00 +19°C° 0 mm 1 mps 647 mmHg 75%
    06:00 +19°C° 0 mm 1 mps 648 mmHg 75%
    07:00 +20°C° 0 mm 1 mps 648 mmHg 75%
    08:00 +22°C° 0 mm 1 mps 649 mmHg 70%
    09:00 +24°C° 0 mm 1 mps 650 mmHg 64%
    10:00 +23°C° 0 mm 0 mps 651 mmHg 58%
    11:00 +26°C° 0 mm 1 mps 650 mmHg 57%
    12:00 +26°C° 0 mm 1 mps 649 mmHg 56%
    13:00 +26°C° 0 mm 1 mps 648 mmHg 55%
    14:00 +26°C° 0.1 mm 1 mps 648 mmHg 58%
    15:00 +25°C° 0.1 mm 1 mps 647 mmHg 60%
    16:00 +25°C° 0.1 mm 1 mps 646 mmHg 62%
    17:00 +23°C° 0 mm 1 mps 646 mmHg 69%
    18:00 +21°C° 0 mm 1 mps 646 mmHg 76%
    19:00 +20°C° 0 mm 1 mps 646 mmHg 82%
    20:00 +20°C° 0 mm 1 mps 646 mmHg 82%
    21:00 +19°C° 0 mm 1 mps 647 mmHg 82%
    22:00 +19°C° 0 mm 1 mps 647 mmHg 82%
    23:00 +19°C° 0 mm 1 mps 647 mmHg 82%

    26 January, Saturday

    Time Temperature Precipitation Wind Pressure Humidity
    00:00 +19°C° 0 mm 1 mps 647 mmHg 82%
    01:00 +19°C° 0 mm 1 mps 646 mmHg 82%
    02:00 +18°C° 0 mm 1 mps 646 mmHg 82%
    03:00 +18°C° 0 mm 1 mps 646 mmHg 82%
    04:00 +18°C° 0 mm 1 mps 646 mmHg 82%
    05:00 +18°C° 0 mm 1 mps 647 mmHg 80%
    06:00 +19°C° 0 mm 1 mps 647 mmHg 77%
    07:00 +19°C° 0 mm 1 mps 648 mmHg 75%
    08:00 +22°C° 0 mm 1 mps 649 mmHg 66%
    09:00 +25°C° 0 mm 1 mps 650 mmHg 56%
    10:00 +28°C° 0 mm 1 mps 651 mmHg 47%
    11:00 +27°C° 0 mm 1 mps 650 mmHg 49%
    12:00 +27°C° 0 mm 1 mps 649 mmHg 51%
    13:00 +26°C° 0 mm 1 mps 648 mmHg 53%
    14:00 +26°C° 0 mm 1 mps 647 mmHg 55%
    15:00 +25°C° 0 mm 1 mps 646 mmHg 58%
    16:00 +24°C° 0 mm 1 mps 646 mmHg 61%
    17:00 +23°C° 0 mm 1 mps 646 mmHg 67%
    18:00 +21°C° 0 mm 1 mps 645 mmHg 74%
    19:00 +19°C° 0 mm 1 mps 645 mmHg 81%
    20:00 +19°C° 0 mm 1 mps 646 mmHg 81%
    21:00 +19°C° 0 mm 1 mps 646 mmHg 80%
    22:00 +19°C° 0 mm 1 mps 646 mmHg 80%
    23:00 +19°C° 0 mm 1 mps 646 mmHg 79%

    27 January, Sunday

    Time Temperature Precipitation Wind Pressure Humidity
    00:00 +19°C° 0 mm 1 mps 646 mmHg 78%
    01:00 +19°C° 0 mm 1 mps 646 mmHg 77%
    02:00 +19°C° 0 mm 1 mps 646 mmHg 77%
    03:00 +19°C° 0 mm 1 mps 646 mmHg 76%
    04:00 +19°C° 0 mm 1 mps 646 mmHg 75%
    05:00 +19°C° 0 mm 1 mps 646 mmHg 73%
    06:00 +19°C° 0 mm 1 mps 647 mmHg 71%
    07:00 +19°C° 0 mm 1 mps 647 mmHg 68%
    08:00 +22°C° 0 mm 1 mps 648 mmHg 59%
    09:00 +25°C° 0 mm 1 mps 650 mmHg 50%
    10:00 +28°C° 0 mm 1 mps 651 mmHg 41%
    11:00 +28°C° 0 mm 1 mps 650 mmHg 43%
    12:00 +28°C° 0 mm 1 mps 649 mmHg 45%
    13:00 +28°C° 0 mm 1 mps 648 mmHg 47%
    14:00 +27°C° 0 mm 1 mps 647 mmHg 49%
    15:00 +26°C° 0 mm 1 mps 646 mmHg 51%
    16:00 +26°C° 0 mm 1 mps 646 mmHg 54%
    17:00 +24°C° 0 mm 1 mps 646 mmHg 62%
    18:00 +22°C° 0 mm 1 mps 645 mmHg 71%
    19:00 +18°C° 0 mm 0 mps 645 mmHg 79%
    20:00 +19°C° 0 mm 1 mps 646 mmHg 79%
    21:00 +19°C° 0 mm 1 mps 646 mmHg 79%
    22:00 +19°C° 0 mm 1 mps 646 mmHg 78%
    23:00 +19°C° 0 mm 1 mps 646 mmHg 78%

    28 January, Monday

    Time Temperature Precipitation Wind Pressure Humidity
    00:00 +19°C° 0 mm 1 mps 646 mmHg 77%
    01:00 +19°C° 0 mm 1 mps 646 mmHg 76%
    02:00 +19°C° 0 mm 1 mps 646 mmHg 75%
    03:00 +19°C° 0 mm 1 mps 646 mmHg 74%
    04:00 +19°C° 0 mm 1 mps 646 mmHg 74%
    05:00 +19°C° 0 mm 1 mps 646 mmHg 73%
    06:00 +20°C° 0 mm 1 mps 647 mmHg 72%
    07:00 +20°C° 0 mm 1 mps 647 mmHg 71%
    08:00 +22°C° 0 mm 1 mps 648 mmHg 65%
    09:00 +24°C° 0 mm 1 mps 649 mmHg 59%
    10:00 +26°C° 0 mm 1 mps 650 mmHg 53%
    11:00 +27°C° 0 mm 1 mps 649 mmHg 53%
    12:00 +27°C° 0 mm 1 mps 648 mmHg 52%
    13:00 +27°C° 0 mm 1 mps 648 mmHg 52%
    14:00 +26°C° 0 mm 1 mps 647 mmHg 55%
    15:00 +26°C° 0 mm 1 mps 646 mmHg 58%
    16:00 +25°C° 0 mm 1 mps 645 mmHg 60%
    17:00 +23°C° 0 mm 1 mps 645 mmHg 67%
    18:00 +21°C° 0 mm 1 mps 645 mmHg 74%
    19:00 +20°C° 0 mm 1 mps 645 mmHg 81%
    20:00 +20°C° 0 mm 1 mps 645 mmHg 81%
    21:00 +20°C° 0 mm 1 mps 645 mmHg 81%
    22:00 +19°C° 0 mm 1 mps 646 mmHg 80%
    23:00 +19°C° 0 mm 1 mps 646 mmHg 80%
    Show more